This is the latest recevied weather packets stored in our database for station/object 4S6DRJ-13. If no packets are shown the sender has not sent any weather packets the latest 1 day(s).
| Time | Temp. | Humidity | Pressure | Rain* | Wind** | Luminosity | Snow |
|---|---|---|---|---|---|---|---|
| 1778131081 | 32.78° C | 66% | 1005.1 hPa | 0 mm | 1.79 m/s, 304° | 1108 W/m² | - |
| 1778131020 | 32.78° C | 67% | 1005.1 hPa | 0 mm | 0.45 m/s, 198° | 957 W/m² | - |
| 1778130959 | 32.78° C | 66% | 1005.1 hPa | 0 mm | 1.79 m/s, 317° | 1114 W/m² | - |
| 1778130898 | 32.22° C | 67% | 1005.2 hPa | 0 mm | 0.89 m/s, 332° | 1113 W/m² | - |
| 1778130837 | 32.22° C | 68% | 1005.1 hPa | 0 mm | 1.34 m/s, 213° | 1111 W/m² | - |
| 1778130776 | 32.22° C | 67% | 1005.3 hPa | 0 mm | 0.89 m/s, 328° | 1112 W/m² | - |
| 1778130715 | 32.22° C | 67% | 1005.3 hPa | 0 mm | 1.34 m/s, 280° | 1110 W/m² | - |
| 1778130655 | 32.22° C | 68% | 1005.1 hPa | 0 mm | 0.45 m/s, 281° | 924 W/m² | - |
| 1778130593 | 32.22° C | 68% | 1005.2 hPa | 0 mm | 0.89 m/s, 291° | 1107 W/m² | - |
| 1778130532 | 32.22° C | 68% | 1005.3 hPa | 0 mm | 0.89 m/s, 254° | 1106 W/m² | - |
| 1778130471 | 32.22° C | 69% | 1005.3 hPa | 0 mm | 0.89 m/s, 232° | 1108 W/m² | - |
| 1778130410 | 32.22° C | 69% | 1005.4 hPa | 0 mm | 0.45 m/s, 178° | 1107 W/m² | - |
| 1778130349 | 32.22° C | 69% | 1005.3 hPa | 0 mm | 0 m/s | 873 W/m² | - |
| 1778130288 | 32.78° C | 68% | 1005.4 hPa | 0 mm | 0.89 m/s, 209° | 376 W/m² | - |
| 1778130227 | 32.78° C | 67% | 1005.4 hPa | 0 mm | 3.13 m/s, 213° | 342 W/m² | - |
| 1778130166 | 32.78° C | 68% | 1005.3 hPa | 0 mm | 2.24 m/s, 189° | 952 W/m² | - |
| 1778130106 | 32.78° C | 68% | 1005.5 hPa | 0 mm | 1.79 m/s, 230° | 1111 W/m² | - |
| 1778130044 | 32.78° C | 68% | 1005.2 hPa | 0 mm | 0.89 m/s, 284° | 1112 W/m² | - |
| 1778129983 | 32.78° C | 68% | 1005.3 hPa | 0 mm | 0.45 m/s, 182° | 1109 W/m² | - |
| 1778129922 | 32.78° C | 67% | 1005.3 hPa | 0 mm | 1.79 m/s, 141° | 1108 W/m² | - |
| 1778129861 | 32.22° C | 68% | 1005.3 hPa | 0 mm | 1.79 m/s, 185° | 992 W/m² | - |
| 1778129800 | 32.22° C | 69% | 1005.3 hPa | 0 mm | 0 m/s | 1104 W/m² | - |
| 1778129739 | 32.22° C | 68% | 1005.4 hPa | 0 mm | 0.89 m/s, 208° | 1101 W/m² | - |
| 1778129678 | 32.22° C | 70% | 1005.3 hPa | 0 mm | 0.89 m/s, 282° | 1101 W/m² | - |
| 1778129617 | 32.22° C | 70% | 1005.3 hPa | 0 mm | 0.45 m/s, 353° | 1103 W/m² | - |
* Rain latest hour (hover to see other rain measurements)
** Current wind speed in m/s (hover to see current wind gust speed)